STARLINK-2489 (48146 NORAD) Tracking and Keplerian Element Data

This shows tracking and keplerian element data for the satellite.

Feedback or suggestion? Click here.




ElementValue
Catalog48146
NameSTARLINK-2489
Epoch Orbit194
Epoch Day173.91668981
Epoch Year2021
RAAN336.4558
Inclination53.0524
Eccentricity0.0001371
Argument of Perigee81.3536
Mean Anonmoly160.5253
Mean Motion15.06392305
Decay Rate3.587E-05
L11 48146U 21027BG 21173.91668981 .00003587 00000-0 25961-3 0 9996
L22 48146 53.0524 336.4558 0001371 81.3536 160.5253 15.06392305 1946

Live tracking and technical data element details for STARLINK-2489 (NORAD 48146). STARLINK-2489 can be tracked NOW for your location showing map with azimuth and elevation plus other details from your city location.

Track the satellite on the map from your city or location and see movement details for azimuth, elevation, latitude, longitude, range, height, and movement on the map or in text.







IsCatalogInMostPopularTable: catalog: 48146, numindb: 37
Update: records affected: 1



GetName: 48146 STARLINK-2489

Hit Count: updated at: Thu, 24 Jun 2021 04:06:35 GMT